Year,Month,Day,Hour,Minute,Value (Times are PST for temperature in C)
2011,02,25,00,00,-4.90
2011,02,25,00,01,-4.90
2011,02,25,00,02,-4.90
2011,02,25,00,03,-4.90
2011,02,25,00,04,-4.90
2011,02,25,00,05,-4.90
2011,02,25,00,06,-4.90
2011,02,25,00,07,-4.90
2011,02,25,00,08,-4.90
2011,02,25,00,09,-4.90
2011,02,25,00,10,-4.90
2011,02,25,00,11,-4.90
2011,02,25,00,12,-4.90
2011,02,25,00,13,-4.90
2011,02,25,00,14,-4.90
2011,02,25,00,15,-4.90
2011,02,25,00,16,-4.90
2011,02,25,00,17,-4.90
2011,02,25,00,18,-4.90
2011,02,25,00,19,-4.90
2011,02,25,00,20,-4.90
2011,02,25,00,21,-5.00
2011,02,25,00,22,-5.00
2011,02,25,00,23,-5.00
2011,02,25,00,24,-5.00
2011,02,25,00,25,-5.00
2011,02,25,00,26,-5.00
2011,02,25,00,27,-5.00
2011,02,25,00,28,-5.00
2011,02,25,00,29,-5.00
2011,02,25,00,30,-5.00
2011,02,25,00,31,-5.00
2011,02,25,00,32,-5.00
2011,02,25,00,33,-5.00
2011,02,25,00,34,-5.10
2011,02,25,00,35,-5.10
2011,02,25,00,36,-5.10
2011,02,25,00,37,-5.10
2011,02,25,00,38,-5.10
2011,02,25,00,39,-5.10
2011,02,25,00,40,-5.10
2011,02,25,00,41,-5.20
2011,02,25,00,42,-5.20
2011,02,25,00,43,-5.10
2011,02,25,00,44,-5.10
2011,02,25,00,45,-5.10
2011,02,25,00,46,-5.00
2011,02,25,00,47,-5.00
2011,02,25,00,48,-5.00
2011,02,25,00,49,-5.00
2011,02,25,00,50,-5.10
2011,02,25,00,51,-5.10
2011,02,25,00,52,-5.10
2011,02,25,00,53,-5.20
2011,02,25,00,54,-5.20
2011,02,25,00,55,-5.20
2011,02,25,00,56,-5.10
2011,02,25,00,57,-5.10
2011,02,25,00,58,-5.10
2011,02,25,00,59,-5.10
2011,02,25,01,00,-5.10
2011,02,25,01,01,-5.10
2011,02,25,01,02,-5.10
2011,02,25,01,03,-5.10
2011,02,25,01,04,-5.10
2011,02,25,01,05,-5.20
2011,02,25,01,06,-5.20
2011,02,25,01,07,-5.20
2011,02,25,01,08,-5.10
2011,02,25,01,09,-5.10
2011,02,25,01,10,-5.10
2011,02,25,01,11,-5.10
2011,02,25,01,12,-5.10
2011,02,25,01,13,-5.10
2011,02,25,01,14,-5.10
2011,02,25,01,15,-5.20
2011,02,25,01,16,-5.20
2011,02,25,01,17,-5.20
2011,02,25,01,18,-5.20
2011,02,25,01,19,-5.20
2011,02,25,01,20,-5.20
2011,02,25,01,21,-5.20
2011,02,25,01,22,-5.20
2011,02,25,01,23,-5.20
2011,02,25,01,24,-5.20
2011,02,25,01,25,-5.20
2011,02,25,01,26,-5.20
2011,02,25,01,27,-5.20
2011,02,25,01,28,-5.30
2011,02,25,01,29,-5.30
2011,02,25,01,30,-5.30
2011,02,25,01,31,-5.30
2011,02,25,01,32,-5.30
2011,02,25,01,33,-5.30
2011,02,25,01,34,-5.30
2011,02,25,01,35,-5.30
2011,02,25,01,36,-5.40
2011,02,25,01,37,-5.40
2011,02,25,01,38,-5.30
2011,02,25,01,39,-5.30
2011,02,25,01,40,-5.30
2011,02,25,01,41,-5.30
2011,02,25,01,42,-5.30
2011,02,25,01,43,-5.30
2011,02,25,01,44,-5.30
2011,02,25,01,45,-5.30
2011,02,25,01,46,-5.30
2011,02,25,01,47,-5.30
2011,02,25,01,48,-5.30
2011,02,25,01,49,-5.30
2011,02,25,01,50,-5.30
2011,02,25,01,51,-5.30
2011,02,25,01,52,-5.30
2011,02,25,01,53,-5.40
2011,02,25,01,54,-5.40
2011,02,25,01,55,-5.40
2011,02,25,01,56,-5.40
2011,02,25,01,57,-5.40
2011,02,25,01,58,-5.50
2011,02,25,01,59,-5.50
2011,02,25,02,00,-5.50
2011,02,25,02,01,-5.50
2011,02,25,02,02,-5.60
2011,02,25,02,03,-5.50
2011,02,25,02,04,-5.50
2011,02,25,02,05,-5.50
2011,02,25,02,06,-5.60
2011,02,25,02,07,-5.50
2011,02,25,02,08,-5.50
2011,02,25,02,09,-5.50
2011,02,25,02,10,-5.50
2011,02,25,02,11,-5.50
2011,02,25,02,12,-5.50
2011,02,25,02,13,-5.60
2011,02,25,02,14,-5.60
2011,02,25,02,15,-5.60
2011,02,25,02,16,-5.60
2011,02,25,02,17,-5.60
2011,02,25,02,18,-5.60
2011,02,25,02,19,-5.60
2011,02,25,02,20,-5.60
2011,02,25,02,21,-5.60
2011,02,25,02,22,-5.70
2011,02,25,02,23,-5.70
2011,02,25,02,24,-5.70
2011,02,25,02,25,-5.70
2011,02,25,02,26,-5.70
2011,02,25,02,27,-5.80
2011,02,25,02,28,-5.80
2011,02,25,02,29,-5.80
2011,02,25,02,30,-5.80
2011,02,25,02,31,-5.90
2011,02,25,02,32,-5.90
2011,02,25,02,33,-5.90
2011,02,25,02,34,-5.90
2011,02,25,02,35,-5.90
2011,02,25,02,36,-5.90
2011,02,25,02,37,-5.90
2011,02,25,02,38,-5.90
2011,02,25,02,39,-6.00
2011,02,25,02,40,-6.10
2011,02,25,02,41,-6.10
2011,02,25,02,42,-6.10
2011,02,25,02,43,-6.10
2011,02,25,02,44,-6.00
2011,02,25,02,45,-5.90
2011,02,25,02,46,-5.90
2011,02,25,02,47,-6.00
2011,02,25,02,48,-6.10
2011,02,25,02,49,-6.10
2011,02,25,02,50,-6.10
2011,02,25,02,51,-6.10
2011,02,25,02,52,-6.10
2011,02,25,02,53,-6.10
2011,02,25,02,54,-6.10
2011,02,25,02,55,-6.10
2011,02,25,02,56,-6.10
2011,02,25,02,57,-6.10
2011,02,25,02,58,-6.10
2011,02,25,02,59,-6.10
2011,02,25,03,00,-6.00
2011,02,25,03,01,-5.90
2011,02,25,03,02,-5.90
2011,02,25,03,03,-5.90
2011,02,25,03,04,-5.90
2011,02,25,03,05,-5.90
2011,02,25,03,06,-5.90
2011,02,25,03,07,-5.90
2011,02,25,03,08,-5.90
2011,02,25,03,09,-5.90
2011,02,25,03,10,-5.90
2011,02,25,03,11,-6.00
2011,02,25,03,12,-6.10
2011,02,25,03,13,-6.10
2011,02,25,03,14,-6.10
2011,02,25,03,15,-6.10
2011,02,25,03,16,-6.10
2011,02,25,03,17,-6.10
2011,02,25,03,18,-6.10
2011,02,25,03,19,-6.10
2011,02,25,03,20,-6.10
2011,02,25,03,21,-6.10
2011,02,25,03,22,-6.10
2011,02,25,03,23,-6.10
2011,02,25,03,24,-6.10
2011,02,25,03,25,-6.10
2011,02,25,03,26,-6.10
2011,02,25,03,27,-6.10
2011,02,25,03,28,-6.10
2011,02,25,03,29,-6.10
2011,02,25,03,30,-6.10
2011,02,25,03,31,-6.10
2011,02,25,03,32,-6.10
2011,02,25,03,33,-6.10
2011,02,25,03,34,-6.10
2011,02,25,03,35,-6.10
2011,02,25,03,36,-6.10
2011,02,25,03,37,-6.10
2011,02,25,03,38,-6.10
2011,02,25,03,39,-6.10
2011,02,25,03,40,-6.10
2011,02,25,03,41,-6.10
2011,02,25,03,42,-6.10
2011,02,25,03,43,-6.10
2011,02,25,03,44,-6.10
2011,02,25,03,45,-6.10
2011,02,25,03,46,-6.10
2011,02,25,03,47,-6.10
2011,02,25,03,48,-6.10
2011,02,25,03,49,-6.10
2011,02,25,03,50,-6.10
2011,02,25,03,51,-6.10
2011,02,25,03,52,-6.20
2011,02,25,03,53,-6.30
2011,02,25,03,54,-6.40
2011,02,25,03,55,-6.40
2011,02,25,03,56,-6.50
2011,02,25,03,57,-6.50
2011,02,25,03,58,-6.60
2011,02,25,03,59,-6.60
2011,02,25,04,00,-6.60
2011,02,25,04,01,-6.60
2011,02,25,04,02,-6.60
2011,02,25,04,03,-6.60
2011,02,25,04,04,-6.60
2011,02,25,04,05,-6.60
2011,02,25,04,06,-6.60
2011,02,25,04,07,-6.60
2011,02,25,04,08,-6.60
2011,02,25,04,09,-6.70
2011,02,25,04,10,-6.70
2011,02,25,04,11,-6.70
2011,02,25,04,12,-6.70
2011,02,25,04,13,-6.70
2011,02,25,04,14,-6.80
2011,02,25,04,15,-6.90
2011,02,25,04,16,-6.90
2011,02,25,04,17,-7.00
2011,02,25,04,18,-7.00
2011,02,25,04,19,-7.00
2011,02,25,04,20,-7.00
2011,02,25,04,21,-7.00
2011,02,25,04,22,-7.10
2011,02,25,04,23,-7.10
2011,02,25,04,24,-7.10
2011,02,25,04,25,-7.10
2011,02,25,04,26,-7.00
2011,02,25,04,27,-7.00
2011,02,25,04,28,-7.00
2011,02,25,04,29,-7.00
2011,02,25,04,30,-7.00
2011,02,25,04,31,-7.00
2011,02,25,04,32,-7.00
2011,02,25,04,33,-7.00
2011,02,25,04,34,-7.00
2011,02,25,04,35,-6.90
2011,02,25,04,36,-6.90
2011,02,25,04,37,-6.90
2011,02,25,04,38,-6.80
2011,02,25,04,39,-6.80
2011,02,25,04,40,-6.70
2011,02,25,04,41,-6.70
2011,02,25,04,42,-6.70
2011,02,25,04,43,-6.70
2011,02,25,04,44,-6.70
2011,02,25,04,45,-6.70
2011,02,25,04,46,-6.70
2011,02,25,04,47,-6.70
2011,02,25,04,48,-6.70
2011,02,25,04,49,-6.70
2011,02,25,04,50,-6.70
2011,02,25,04,51,-6.70
2011,02,25,04,52,-6.70
2011,02,25,04,53,-6.60
2011,02,25,04,54,-6.60
2011,02,25,04,55,-6.60
2011,02,25,04,56,-6.60
2011,02,25,04,57,-6.60
2011,02,25,04,58,-6.70
2011,02,25,04,59,-6.70
2011,02,25,05,00,-6.70
2011,02,25,05,01,-6.70
2011,02,25,05,02,-6.60
2011,02,25,05,03,-6.60
2011,02,25,05,04,-6.60
2011,02,25,05,05,-6.60
2011,02,25,05,06,-6.60
2011,02,25,05,07,-6.60
2011,02,25,05,08,-6.70
2011,02,25,05,09,-6.70
2011,02,25,05,10,-6.70
2011,02,25,05,11,-6.70
2011,02,25,05,12,-6.70
2011,02,25,05,13,-6.70
2011,02,25,05,14,-6.70
2011,02,25,05,15,-6.70
2011,02,25,05,16,-6.70
2011,02,25,05,17,-6.70
2011,02,25,05,18,-6.80
2011,02,25,05,19,-6.80
2011,02,25,05,20,-6.80
2011,02,25,05,21,-6.80
2011,02,25,05,22,-6.80
2011,02,25,05,23,-6.90
2011,02,25,05,24,-6.90
2011,02,25,05,25,-6.90
2011,02,25,05,26,-6.90
2011,02,25,05,27,-6.90
2011,02,25,05,28,-6.80
2011,02,25,05,29,-6.80
2011,02,25,05,30,-6.90
2011,02,25,05,31,-6.90
2011,02,25,05,32,-6.90
2011,02,25,05,33,-6.90
2011,02,25,05,34,-6.90
2011,02,25,05,35,-6.90
2011,02,25,05,36,-6.90
2011,02,25,05,37,-7.00
2011,02,25,05,38,-7.00
2011,02,25,05,39,-7.10
2011,02,25,05,40,-7.10
2011,02,25,05,41,-7.10
2011,02,25,05,42,-7.20
2011,02,25,05,43,-7.20
2011,02,25,05,44,-7.20
2011,02,25,05,45,-7.20
2011,02,25,05,46,-7.20
2011,02,25,05,47,-7.10
2011,02,25,05,48,-7.10
2011,02,25,05,49,-7.10
2011,02,25,05,50,-7.10
2011,02,25,05,51,-7.10
2011,02,25,05,52,-7.20
2011,02,25,05,53,-7.20
2011,02,25,05,54,-7.30
2011,02,25,05,55,-7.30
2011,02,25,05,56,-7.30
2011,02,25,05,57,-7.30
2011,02,25,05,58,-7.40
2011,02,25,05,59,-7.40
2011,02,25,06,00,-7.40
2011,02,25,06,01,-7.40
2011,02,25,06,02,-7.30
2011,02,25,06,03,-7.30
2011,02,25,06,04,-7.30
2011,02,25,06,05,-7.30
2011,02,25,06,06,-7.30
2011,02,25,06,07,-7.30
2011,02,25,06,08,-7.30
2011,02,25,06,09,-7.30
2011,02,25,06,10,-7.40
2011,02,25,06,11,-7.40
2011,02,25,06,12,-7.50
2011,02,25,06,13,-7.60
2011,02,25,06,14,-7.60
2011,02,25,06,15,-7.60
2011,02,25,06,16,-7.60
2011,02,25,06,17,-7.60
2011,02,25,06,18,-7.60
2011,02,25,06,19,-7.60
2011,02,25,06,20,-7.60
2011,02,25,06,21,-7.60
2011,02,25,06,22,-7.60
2011,02,25,06,23,-7.60
2011,02,25,06,24,-7.60
2011,02,25,06,25,-7.60
2011,02,25,06,26,-7.60
2011,02,25,06,27,-7.60
2011,02,25,06,28,-7.60
2011,02,25,06,29,-7.60
2011,02,25,06,30,-7.60
2011,02,25,06,31,-7.70
2011,02,25,06,32,-7.70
2011,02,25,06,33,-7.80
2011,02,25,06,34,-7.80
2011,02,25,06,35,-7.80
2011,02,25,06,36,-7.90
2011,02,25,06,37,-7.90
2011,02,25,06,38,-7.90
2011,02,25,06,39,-7.90
2011,02,25,06,40,-7.90
2011,02,25,06,41,-7.90
2011,02,25,06,42,-7.90
2011,02,25,06,43,-7.80
2011,02,25,06,44,-7.80
2011,02,25,06,45,-7.70
2011,02,25,06,46,-7.70
2011,02,25,06,47,-7.70
2011,02,25,06,48,-7.70
2011,02,25,06,49,-7.70
2011,02,25,06,50,-7.60
2011,02,25,06,51,-7.60
2011,02,25,06,52,-7.60
2011,02,25,06,53,-7.60
2011,02,25,06,54,-7.60
2011,02,25,06,55,-7.60
2011,02,25,06,56,-7.70
2011,02,25,06,57,-7.70
2011,02,25,06,58,-7.80
2011,02,25,06,59,-7.80
2011,02,25,07,00,-7.80
2011,02,25,07,01,-7.90
2011,02,25,07,02,-7.90
2011,02,25,07,03,-7.90
2011,02,25,07,04,-7.90
2011,02,25,07,05,-7.90
2011,02,25,07,06,-7.90
2011,02,25,07,07,-7.90
2011,02,25,07,08,-8.00
2011,02,25,07,09,-8.10
2011,02,25,07,10,-8.10
2011,02,25,07,11,-8.10
2011,02,25,07,12,-8.10
2011,02,25,07,13,-8.10
2011,02,25,07,14,-8.10
2011,02,25,07,15,-8.00
2011,02,25,07,16,-7.90
2011,02,25,07,17,-7.90
2011,02,25,07,18,-7.90
2011,02,25,07,19,-8.00
2011,02,25,07,20,-8.00
2011,02,25,07,21,-7.90
2011,02,25,07,22,-7.90
2011,02,25,07,23,-7.90
2011,02,25,07,24,-7.80
2011,02,25,07,25,-7.80
2011,02,25,07,26,-7.70
2011,02,25,07,27,-7.70
2011,02,25,07,28,-7.70
2011,02,25,07,29,-7.70
2011,02,25,07,30,-7.70
2011,02,25,07,31,-7.70
2011,02,25,07,32,-7.60
2011,02,25,07,33,-7.60
2011,02,25,07,34,-7.60
2011,02,25,07,35,-7.60
2011,02,25,07,36,-7.60
2011,02,25,07,37,-7.60
2011,02,25,07,38,-7.60
2011,02,25,07,39,-7.60
2011,02,25,07,40,-7.40
2011,02,25,07,41,-7.40
2011,02,25,07,42,-7.30
2011,02,25,07,43,-7.30
2011,02,25,07,44,-7.30
2011,02,25,07,45,-7.30
2011,02,25,07,46,-7.30
2011,02,25,07,47,-7.30
2011,02,25,07,48,-7.30
2011,02,25,07,49,-7.30
2011,02,25,07,50,-7.30
2011,02,25,07,51,-7.30
2011,02,25,07,52,-7.20
2011,02,25,07,53,-7.10
2011,02,25,07,54,-7.10
2011,02,25,07,55,-7.00
2011,02,25,07,56,-7.00
2011,02,25,07,57,-7.00
2011,02,25,07,58,-6.90
2011,02,25,07,59,-6.90
2011,02,25,08,00,-6.80
2011,02,25,08,01,-6.80
2011,02,25,08,02,-6.80
2011,02,25,08,03,-6.80
2011,02,25,08,04,-6.70
2011,02,25,08,05,-6.70
2011,02,25,08,06,-6.70
2011,02,25,08,07,-6.60
2011,02,25,08,08,-6.50
2011,02,25,08,09,-6.50
2011,02,25,08,10,-6.40
2011,02,25,08,11,-6.40
2011,02,25,08,12,-6.30
2011,02,25,08,13,-6.30
2011,02,25,08,14,-6.20
2011,02,25,08,15,-6.20
2011,02,25,08,16,-6.10
2011,02,25,08,17,-6.10
2011,02,25,08,18,-6.10
2011,02,25,08,19,-5.90
2011,02,25,08,20,-5.90
2011,02,25,08,21,-5.80
2011,02,25,08,22,-5.70
2011,02,25,08,23,-5.60
2011,02,25,08,24,-5.50
2011,02,25,08,25,-5.40
2011,02,25,08,26,-5.40
2011,02,25,08,27,-5.30
2011,02,25,08,28,-5.20
2011,02,25,08,29,-5.10
2011,02,25,08,30,-5.00
2011,02,25,08,31,-4.90
2011,02,25,08,32,-4.90
2011,02,25,08,33,-4.80
2011,02,25,08,34,-4.80
2011,02,25,08,35,-4.80
2011,02,25,08,36,-4.80
2011,02,25,08,37,-4.70
2011,02,25,08,38,-4.70
2011,02,25,08,39,-4.60
2011,02,25,08,40,-4.50
2011,02,25,08,41,-4.40
2011,02,25,08,42,-4.40
2011,02,25,08,43,-4.30
2011,02,25,08,44,-4.30
2011,02,25,08,45,-4.30
2011,02,25,08,46,-4.30
2011,02,25,08,47,-4.30
2011,02,25,08,48,-4.20
2011,02,25,08,49,-4.20
2011,02,25,08,50,-4.20
2011,02,25,08,51,-4.20
2011,02,25,08,52,-4.20
2011,02,25,08,53,-4.20
2011,02,25,08,54,-4.20
2011,02,25,08,55,-4.20
2011,02,25,08,56,-4.10
2011,02,25,08,57,-4.00
2011,02,25,08,58,-4.00
2011,02,25,08,59,-3.90
2011,02,25,09,00,-3.70
2011,02,25,09,01,-3.70
2011,02,25,09,02,-3.70
2011,02,25,09,03,-3.70
2011,02,25,09,04,-3.70
2011,02,25,09,05,-3.70
2011,02,25,09,06,-3.70
2011,02,25,09,07,-3.70
2011,02,25,09,08,-3.60
2011,02,25,09,09,-3.60
2011,02,25,09,10,-3.60
2011,02,25,09,11,-3.50
2011,02,25,09,12,-3.50
2011,02,25,09,13,-3.50
2011,02,25,09,14,-3.40
2011,02,25,09,15,-3.40
2011,02,25,09,16,-3.30
2011,02,25,09,17,-3.30
2011,02,25,09,18,-3.30
2011,02,25,09,19,-3.20
2011,02,25,09,20,-3.20
2011,02,25,09,21,-3.10
2011,02,25,09,22,-3.10
2011,02,25,09,23,-3.20
2011,02,25,09,24,-3.20
2011,02,25,09,25,-3.20
2011,02,25,09,26,-3.20
2011,02,25,09,27,-3.20
2011,02,25,09,28,-3.10
2011,02,25,09,29,-3.00
2011,02,25,09,30,-3.00
2011,02,25,09,31,-2.90
2011,02,25,09,32,-2.90
2011,02,25,09,33,-2.80
2011,02,25,09,34,-2.80
2011,02,25,09,35,-2.80
2011,02,25,09,36,-2.80
2011,02,25,09,37,-2.70
2011,02,25,09,38,-2.60
2011,02,25,09,39,-2.70
2011,02,25,09,40,-2.70
2011,02,25,09,41,-2.70
2011,02,25,09,42,-2.80
2011,02,25,09,43,-2.80
2011,02,25,09,44,-2.90
2011,02,25,09,45,-2.90
2011,02,25,09,46,-2.90
2011,02,25,09,47,-2.90
2011,02,25,09,48,-3.00
2011,02,25,09,49,-3.00
2011,02,25,09,50,-3.10
2011,02,25,09,51,-3.10
2011,02,25,09,52,-3.20
2011,02,25,09,53,-3.20
2011,02,25,09,54,-3.20
2011,02,25,09,55,-3.20
2011,02,25,09,56,-3.20
2011,02,25,09,57,-3.20
2011,02,25,09,58,-3.10
2011,02,25,09,59,-3.00
2011,02,25,10,00,-2.90
2011,02,25,10,01,-2.90
2011,02,25,10,02,-2.90
2011,02,25,10,03,-2.90
2011,02,25,10,04,-3.00
2011,02,25,10,05,-3.00
2011,02,25,10,06,-3.10
2011,02,25,10,07,-3.10
2011,02,25,10,08,-3.20
2011,02,25,10,09,-3.10
2011,02,25,10,10,-3.10
2011,02,25,10,11,-3.00
2011,02,25,10,12,-2.90
2011,02,25,10,13,-2.80
2011,02,25,10,14,-2.80
2011,02,25,10,15,-2.80
2011,02,25,10,16,-2.80
2011,02,25,10,17,-2.80
2011,02,25,10,18,-2.80
2011,02,25,10,19,-2.70
2011,02,25,10,20,-2.70
2011,02,25,10,21,-2.60
2011,02,25,10,22,-2.50
2011,02,25,10,23,-2.40
2011,02,25,10,24,-2.30
2011,02,25,10,25,-2.30
2011,02,25,10,26,-2.30
2011,02,25,10,27,-2.30
2011,02,25,10,28,-2.40
2011,02,25,10,29,-2.40
2011,02,25,10,30,-2.40
2011,02,25,10,31,-2.40
2011,02,25,10,32,-2.40
2011,02,25,10,33,-2.50
2011,02,25,10,34,-2.50
2011,02,25,10,35,-2.70
2011,02,25,10,36,-2.80
2011,02,25,10,37,-2.90
2011,02,25,10,38,-3.00
2011,02,25,10,39,-3.00
2011,02,25,10,40,-3.00
2011,02,25,10,41,-3.00
2011,02,25,10,42,-3.00
2011,02,25,10,43,-3.10
2011,02,25,10,44,-3.10
2011,02,25,10,45,-3.10
2011,02,25,10,46,-3.00
2011,02,25,10,47,-3.00
2011,02,25,10,48,-2.90
2011,02,25,10,49,-2.90
2011,02,25,10,50,-2.90
2011,02,25,10,51,-2.80
2011,02,25,10,52,-2.80
2011,02,25,10,53,-2.70
2011,02,25,10,54,-2.70
2011,02,25,10,55,-2.50
2011,02,25,10,56,-2.50
2011,02,25,10,57,-2.50
2011,02,25,10,58,-2.40
2011,02,25,10,59,-2.40
2011,02,25,11,00,-2.40
2011,02,25,11,01,-2.40
2011,02,25,11,02,-2.30
2011,02,25,11,03,-2.30
2011,02,25,11,04,-2.20
2011,02,25,11,05,-2.20
2011,02,25,11,06,-2.30
2011,02,25,11,07,-2.20
2011,02,25,11,08,-2.20
2011,02,25,11,09,-2.20
2011,02,25,11,10,-2.30
2011,02,25,11,11,-2.30
2011,02,25,11,12,-2.30
2011,02,25,11,13,-2.30
2011,02,25,11,14,-2.30
2011,02,25,11,15,-2.30
2011,02,25,11,16,-2.30
2011,02,25,11,17,-2.30
2011,02,25,11,18,-2.30
2011,02,25,11,19,-2.30
2011,02,25,11,20,-2.30
2011,02,25,11,21,-2.30
2011,02,25,11,22,-2.30
2011,02,25,11,23,-2.30
2011,02,25,11,24,-2.30
2011,02,25,11,25,-2.30
2011,02,25,11,26,-2.20
2011,02,25,11,27,-2.30
2011,02,25,11,28,-2.30
2011,02,25,11,29,-2.30
2011,02,25,11,30,-2.30
2011,02,25,11,31,-2.30
2011,02,25,11,32,-2.30
2011,02,25,11,33,-2.30
2011,02,25,11,34,-2.30
2011,02,25,11,35,-2.10
2011,02,25,11,36,-2.10
2011,02,25,11,37,-2.00
2011,02,25,11,38,-1.90
2011,02,25,11,39,-1.80
2011,02,25,11,40,-1.80
2011,02,25,11,41,-1.90
2011,02,25,11,42,-2.00
2011,02,25,11,43,-2.10
2011,02,25,11,44,-2.10
2011,02,25,11,45,-2.10
2011,02,25,11,46,-2.00
2011,02,25,11,47,-2.00
2011,02,25,11,48,-2.00
2011,02,25,11,49,-2.00
2011,02,25,11,50,-2.10
2011,02,25,11,51,-2.10
2011,02,25,11,52,-2.20
2011,02,25,11,53,-2.20
2011,02,25,11,54,-2.20
2011,02,25,11,55,-2.30
2011,02,25,11,56,-2.30
2011,02,25,11,57,-2.30
2011,02,25,11,58,-2.30
2011,02,25,11,59,-2.20
2011,02,25,12,00,-2.20
2011,02,25,12,01,-2.10
2011,02,25,12,02,-2.10
2011,02,25,12,03,-2.10
2011,02,25,12,04,-2.00
2011,02,25,12,05,-2.00
2011,02,25,12,06,-2.00
2011,02,25,12,07,-1.90
2011,02,25,12,08,-1.90
2011,02,25,12,09,-1.80
2011,02,25,12,10,-1.80
2011,02,25,12,11,-1.80
2011,02,25,12,12,-1.70
2011,02,25,12,13,-1.70
2011,02,25,12,14,-1.60
2011,02,25,12,15,-1.60
2011,02,25,12,16,-1.50
2011,02,25,12,17,-1.50
2011,02,25,12,18,-1.60
2011,02,25,12,19,-1.70
2011,02,25,12,20,-1.70
2011,02,25,12,21,-1.70
2011,02,25,12,22,-1.80
2011,02,25,12,23,-1.80
2011,02,25,12,24,-1.80
2011,02,25,12,25,-1.70
2011,02,25,12,26,-1.70
2011,02,25,12,27,-1.60
2011,02,25,12,28,-1.60
2011,02,25,12,29,-1.50
2011,02,25,12,30,-1.50
2011,02,25,12,31,-1.40
2011,02,25,12,32,-1.40
2011,02,25,12,33,-1.40
2011,02,25,12,34,-1.40
2011,02,25,12,35,-1.40
2011,02,25,12,36,-1.40
2011,02,25,12,37,-1.40
2011,02,25,12,38,-1.40
2011,02,25,12,39,-1.40
2011,02,25,12,40,-1.40
2011,02,25,12,41,-1.40
2011,02,25,12,42,-1.40
2011,02,25,12,43,-1.30
2011,02,25,12,44,-1.20
2011,02,25,12,45,-1.10
2011,02,25,12,46,-1.10
2011,02,25,12,47,-0.90
2011,02,25,12,48,-0.90
2011,02,25,12,49,-0.90
2011,02,25,12,50,-0.90
2011,02,25,12,51,-0.90
2011,02,25,12,52,-0.90
2011,02,25,12,53,-1.00
2011,02,25,12,54,-1.10
2011,02,25,12,55,-1.10
2011,02,25,12,56,-1.10
2011,02,25,12,57,-1.10
2011,02,25,12,58,-1.10
2011,02,25,12,59,-1.10
2011,02,25,13,00,-1.10
2011,02,25,13,01,-1.10
2011,02,25,13,02,-1.20
2011,02,25,13,03,-1.20
2011,02,25,13,04,-1.20
2011,02,25,13,05,-1.30
2011,02,25,13,06,-1.30
2011,02,25,13,07,-1.40
2011,02,25,13,08,-1.50
2011,02,25,13,09,-1.50
2011,02,25,13,10,-1.50
2011,02,25,13,11,-1.50
2011,02,25,13,12,-1.60
2011,02,25,13,13,-1.60
2011,02,25,13,14,-1.60
2011,02,25,13,15,-1.60
2011,02,25,13,16,-1.50
2011,02,25,13,17,-1.50
2011,02,25,13,18,-1.40
2011,02,25,13,19,-1.50
2011,02,25,13,20,-1.50
2011,02,25,13,21,-1.50
2011,02,25,13,22,-1.50
2011,02,25,13,23,-1.40
2011,02,25,13,24,-1.40
2011,02,25,13,25,-1.40
2011,02,25,13,26,-1.40
2011,02,25,13,27,-1.40
2011,02,25,13,28,-1.40
2011,02,25,13,29,-1.40
2011,02,25,13,30,-1.40
2011,02,25,13,31,-1.50
2011,02,25,13,32,-1.50
2011,02,25,13,33,-1.40
2011,02,25,13,34,-1.40
2011,02,25,13,35,-1.40
2011,02,25,13,36,-1.40
2011,02,25,13,37,-1.40
2011,02,25,13,38,-1.40
2011,02,25,13,39,-1.40
2011,02,25,13,40,-1.40
2011,02,25,13,41,-1.40
2011,02,25,13,42,-1.40
2011,02,25,13,43,-1.40
2011,02,25,13,44,-1.40
2011,02,25,13,45,-1.40
2011,02,25,13,46,-1.50
2011,02,25,13,47,-1.50
2011,02,25,13,48,-1.50
2011,02,25,13,49,-1.40
2011,02,25,13,50,-1.40
2011,02,25,13,51,-1.40
2011,02,25,13,52,-1.40
2011,02,25,13,53,-1.40
2011,02,25,13,54,-1.40
2011,02,25,13,55,-1.40
2011,02,25,13,56,-1.40
2011,02,25,13,57,-1.40
2011,02,25,13,58,-1.40
2011,02,25,13,59,-1.50
2011,02,25,14,00,-1.60
2011,02,25,14,01,-1.50
2011,02,25,14,02,-1.50
2011,02,25,14,03,-1.40
2011,02,25,14,04,-1.40
2011,02,25,14,05,-1.30
2011,02,25,14,06,-1.30
2011,02,25,14,07,-1.30
2011,02,25,14,08,-1.40
2011,02,25,14,09,-1.30
2011,02,25,14,10,-1.40
2011,02,25,14,11,-1.40
2011,02,25,14,12,-1.40
2011,02,25,14,13,-1.40
2011,02,25,14,14,-1.40
2011,02,25,14,15,-1.40
2011,02,25,14,16,-1.40
2011,02,25,14,17,-1.40
2011,02,25,14,18,-1.50
2011,02,25,14,19,-1.50
2011,02,25,14,20,-1.50
2011,02,25,14,21,-1.50
2011,02,25,14,22,-1.50
2011,02,25,14,23,-1.50
2011,02,25,14,24,-1.50
2011,02,25,14,25,-1.50
2011,02,25,14,26,-1.50
2011,02,25,14,27,-1.50
2011,02,25,14,28,-1.50
2011,02,25,14,29,-1.50
2011,02,25,14,30,-1.50
2011,02,25,14,31,-1.50
2011,02,25,14,32,-1.40
2011,02,25,14,33,-1.30
2011,02,25,14,34,-1.30
2011,02,25,14,35,-1.30
2011,02,25,14,36,-1.30
2011,02,25,14,37,-1.30
2011,02,25,14,38,-1.30
2011,02,25,14,39,-1.20
2011,02,25,14,40,-1.10
2011,02,25,14,41,-1.10
2011,02,25,14,42,-1.10
2011,02,25,14,43,-1.10
2011,02,25,14,44,-1.10
2011,02,25,14,45,-1.10
2011,02,25,14,46,-1.20
2011,02,25,14,47,-1.20
2011,02,25,14,48,-1.20
2011,02,25,14,49,-1.20
2011,02,25,14,50,-1.30
2011,02,25,14,51,-1.20
2011,02,25,14,52,-1.20
2011,02,25,14,53,-1.20
2011,02,25,14,54,-1.10
2011,02,25,14,55,-1.10
2011,02,25,14,56,-1.10
2011,02,25,14,57,-1.10
2011,02,25,14,58,-1.10
2011,02,25,14,59,-1.10
2011,02,25,15,00,-1.00
2011,02,25,15,01,-0.90
2011,02,25,15,02,-0.90
2011,02,25,15,03,-0.90
2011,02,25,15,04,-1.00
2011,02,25,15,05,-1.10
2011,02,25,15,06,-1.10
2011,02,25,15,07,-1.10
2011,02,25,15,08,-1.20
2011,02,25,15,09,-1.20
2011,02,25,15,10,-1.30
2011,02,25,15,11,-1.30
2011,02,25,15,12,-1.40
2011,02,25,15,13,-1.40
2011,02,25,15,14,-1.40
2011,02,25,15,15,-1.40
2011,02,25,15,16,-1.30
2011,02,25,15,17,-1.30
2011,02,25,15,18,-1.30
2011,02,25,15,19,-1.40
2011,02,25,15,20,-1.30
2011,02,25,15,21,-1.30
2011,02,25,15,22,-1.20
2011,02,25,15,23,-1.20
2011,02,25,15,24,-1.20
2011,02,25,15,25,-1.20
2011,02,25,15,26,-1.10
2011,02,25,15,27,-1.10
2011,02,25,15,28,-1.20
2011,02,25,15,29,-1.20
2011,02,25,15,30,-1.20
2011,02,25,15,31,-1.30
2011,02,25,15,32,-1.30
2011,02,25,15,33,-1.40
2011,02,25,15,34,-1.40
2011,02,25,15,35,-1.40
2011,02,25,15,36,-1.40
2011,02,25,15,37,-1.40
2011,02,25,15,38,-1.40
2011,02,25,15,39,-1.30
2011,02,25,15,40,-1.30
2011,02,25,15,41,-1.30
2011,02,25,15,42,-1.30
2011,02,25,15,43,-1.20
2011,02,25,15,44,-1.20
2011,02,25,15,45,-1.10
2011,02,25,15,46,-1.10
2011,02,25,15,47,-1.20
2011,02,25,15,48,-1.30
2011,02,25,15,49,-1.30
2011,02,25,15,50,-1.30
2011,02,25,15,51,-1.30
2011,02,25,15,52,-1.30
2011,02,25,15,53,-1.30
2011,02,25,15,54,-1.20
2011,02,25,15,55,-1.20
2011,02,25,15,56,-1.20
2011,02,25,15,57,-1.30
2011,02,25,15,58,-1.30
2011,02,25,15,59,-1.30
2011,02,25,16,00,-1.30
2011,02,25,16,01,-1.20
2011,02,25,16,02,-1.20
2011,02,25,16,03,-1.20
2011,02,25,16,04,-1.20
2011,02,25,16,05,-1.20
2011,02,25,16,06,-1.30
2011,02,25,16,07,-1.30
2011,02,25,16,08,-1.30
2011,02,25,16,09,-1.30
2011,02,25,16,10,-1.30
2011,02,25,16,11,-1.30
2011,02,25,16,12,-1.30
2011,02,25,16,13,-1.30
2011,02,25,16,14,-1.30
2011,02,25,16,15,-1.30
2011,02,25,16,16,-1.20
2011,02,25,16,17,-1.20
2011,02,25,16,18,-1.20
2011,02,25,16,19,-1.30
2011,02,25,16,20,-1.30
2011,02,25,16,21,-1.30
2011,02,25,16,22,-1.40
2011,02,25,16,23,-1.40
2011,02,25,16,24,-1.40
2011,02,25,16,25,-1.40
2011,02,25,16,26,-1.40
2011,02,25,16,27,-1.40
2011,02,25,16,28,-1.30
2011,02,25,16,29,-1.30
2011,02,25,16,30,-1.40
2011,02,25,16,31,-1.40
2011,02,25,16,32,-1.40
2011,02,25,16,33,-1.40
2011,02,25,16,34,-1.40
2011,02,25,16,35,-1.40
2011,02,25,16,36,-1.40
2011,02,25,16,37,-1.40
2011,02,25,16,38,-1.50
2011,02,25,16,39,-1.60
2011,02,25,16,40,-1.60
2011,02,25,16,41,-1.70
2011,02,25,16,42,-1.70
2011,02,25,16,43,-1.70
2011,02,25,16,44,-1.70
2011,02,25,16,45,-1.70
2011,02,25,16,46,-1.70
2011,02,25,16,47,-1.70
2011,02,25,16,48,-1.70
2011,02,25,16,49,-1.70
2011,02,25,16,50,-1.70
2011,02,25,16,51,-1.80
2011,02,25,16,52,-1.80
2011,02,25,16,53,-1.80
2011,02,25,16,54,-1.80
2011,02,25,16,55,-1.80
2011,02,25,16,56,-1.80
2011,02,25,16,57,-1.80
2011,02,25,16,58,-1.80
2011,02,25,16,59,-1.80
2011,02,25,17,00,-1.80
2011,02,25,17,01,-1.80
2011,02,25,17,02,-1.80
2011,02,25,17,03,-1.80
2011,02,25,17,04,-1.80
2011,02,25,17,05,-1.80
2011,02,25,17,06,-1.80
2011,02,25,17,07,-1.90
2011,02,25,17,08,-1.90
2011,02,25,17,09,-2.00
2011,02,25,17,10,-2.00
2011,02,25,17,11,-2.00
2011,02,25,17,12,-2.00
2011,02,25,17,13,-2.10
2011,02,25,17,14,-2.10
2011,02,25,17,15,-2.10
2011,02,25,17,16,-2.20
2011,02,25,17,17,-2.20
2011,02,25,17,18,-2.20
2011,02,25,17,19,-2.30